ONEWEB-0370, 49296

Orbit data source: Space-Track

ONEWEB-0370, 49296 is a payload satellite owned by One Web (NAA) (UK) in LEO that was launched on Thu, 14 Oct 2021 UTC via a SOYUZ-2-1B launch vehicle from the Vostochny Cosmodrome (VOSTO). Payload-class satellites include a variety of spacecraft equipped with specific instruments for various scientific and technological missions. These include communications satellites like Starlink; space stations such as the ISS; scientific satellites like the Hubble; Earth observation satellites from companies like Planet Labs, Umbra, and HawkEye 360; GPS; miniature CubeSats for education and research; and military/defense satellites.

Loading next visibility...
Identifier
49296, 2021-090T
Orbit
LEO
Country
Flag of UKUK
Related business
Manufacturer
One Web
Mission
Operational Commercial Communications
Bus & Motor
ARROW, Unknown motor
Mass
148 kg wet, ~140 kg dry
Launch date (UTC)
2021-10-14 (5 years ago)
Launch vehicle
SOYUZ-2-1B
Launch site
Vostochny Cosmodrome (VOSTO)
Object type
Payload
Rocket body
Debris
Shape & HBR
Trap Box + 2 Pan, 6.7 m
Radar Cross Section
3.464 m², Large (>1 m²)

Expand to show TLE details & history
Last TLE update: 2 days ago

TLE from 2 days ago
0 ONEWEB-0370
1 49296U 21090T   26171.27844855  .00000037  00000-0  59675-4 0  9998
2 49296  87.9197 273.8240 0002240 104.5863 255.5519 13.20770960230275
Epoch: 2026-06-20T06:40Z
TLE epoch observation values (Epoch: 2026-06-20T06:40:57.954Z)
Latitude
-0.00002°
Longitude
-94.91284°
Altitude
1,185.103 km
Speed
7.261 km/s
True Right ascension
18h 15m 17s
True Declination
0° 00' 00"
Sunlit
Object was in full shadow at epoch
Visualization orbit readout
Latitude
Unknown
Longitude
Unknown
Altitude
Unknown
Speed
Unknown
Apparent Right ascension
Unknown
Apparent Declination
Unknown
Sunlit
N/A
Visualization observer readout
Local Sidereal Time
21:35:41
Azimuth
Unknown
Elevation
Unknown
Doppler factor
Unknown
Orbital elements
Apogee altitude
1,180.574 km
Perigee altitude
1,177.188 km
Semi-major axis
7,557.018 km
Eccentricity
0.00022
Inclination
87.9197°
RAAN
273.824°
Arg. of periapsis
104.5863°
True anomaly
255.52705°
Mean anomaly
255.5519°
Eccentric anomaly
255.53947°
Mean motion
3.30383 °/min
Orbital period
108.96 mins
BSTAR
0.000059675
Loading maneuver chart data...
Computing Atmospheric mass density...
Loading historical data...
Loading historical data...
Loading historical data...
Loading historical data...
Loading historical data...
Loading historical data...
Loading historical data...

Documentation

Showing up to 5 results
|